• In Hungary
  • List of Countries
  • For 7 days
  • Water Temperature
  • Satellite Maps
  • Weather Map
  • News
  • Weather Widgets
  • user-avatar
    Login

    Hourly Weather Honiatyczki

    Today, 23 October, Tuesday

    Time Temperature Precipitation Wind Pressure Humidity
    00:00 +7°C° 0.1 mm 3 mps 748 mmHg 78%
    01:00 +6°C° 0.1 mm 4 mps 748 mmHg 79%
    02:00 +7°C° 0 mm 3 mps 748 mmHg 80%
    03:00 +7°C° 0.1 mm 3 mps 747 mmHg 82%
    04:00 +6°C° 0.1 mm 4 mps 747 mmHg 85%
    05:00 +6°C° 0.1 mm 4 mps 747 mmHg 87%
    06:00 +5°C° 0 mm 4 mps 746 mmHg 89%
    07:00 +5°C° 0 mm 4 mps 746 mmHg 90%
    08:00 +3°C° 0 mm 5 mps 746 mmHg 91%
    09:00 +5°C° 0 mm 5 mps 745 mmHg 83%
    10:00 +5°C° 0 mm 6 mps 744 mmHg 75%
    11:00 +7°C° 0 mm 6 mps 744 mmHg 66%
    12:00 +6°C° 0.1 mm 7 mps 743 mmHg 64%
    13:00 +6°C° 0.1 mm 7 mps 741 mmHg 62%
    14:00 +6°C° 0 mm 8 mps 740 mmHg 63%
    15:00 +6°C° 0.8 mm 8 mps 739 mmHg 65%
    16:00 +5°C° 0.8 mm 9 mps 737 mmHg 68%
    17:00 +5°C° 0.8 mm 9 mps 736 mmHg 71%
    18:00 +5°C° 0.6 mm 9 mps 735 mmHg 73%
    19:00 +5°C° 0.6 mm 9 mps 734 mmHg 75%
    20:00 +5°C° 0.6 mm 10 mps 733 mmHg 76%
    21:00 +5°C° 0.9 mm 9 mps 732 mmHg 79%
    22:00 +5°C° 0.9 mm 9 mps 731 mmHg 81%
    23:00 +5°C° 0.9 mm 9 mps 730 mmHg 84%

    Tomorrow, 24 October, Wednesday

    Time Temperature Precipitation Wind Pressure Humidity
    00:00 +6°C° 1.3 mm 8 mps 729 mmHg 84%
    01:00 +6°C° 1.3 mm 8 mps 729 mmHg 85%
    02:00 +6°C° 1.3 mm 8 mps 728 mmHg 86%
    03:00 +6°C° 0.5 mm 8 mps 727 mmHg 83%
    04:00 +6°C° 0.5 mm 8 mps 727 mmHg 81%
    05:00 +5°C° 0.5 mm 8 mps 726 mmHg 79%
    06:00 +5°C° 0.3 mm 8 mps 727 mmHg 79%
    07:00 +4°C° 0.3 mm 8 mps 727 mmHg 78%
    08:00 +4°C° 0.3 mm 8 mps 727 mmHg 78%
    09:00 +4°C° 0.5 mm 8 mps 727 mmHg 75%
    10:00 +3°C° 0.5 mm 9 mps 728 mmHg 72%
    11:00 +5°C° 0.5 mm 9 mps 728 mmHg 69%
    12:00 +5°C° 0.1 mm 10 mps 729 mmHg 65%
    13:00 +5°C° 0.1 mm 10 mps 730 mmHg 60%
    14:00 +4°C° 0.1 mm 11 mps 730 mmHg 56%
    15:00 +5°C° 0.2 mm 10 mps 730 mmHg 58%
    16:00 +3°C° 0.2 mm 10 mps 731 mmHg 59%
    17:00 +3°C° 0.2 mm 10 mps 731 mmHg 61%
    18:00 +3°C° 0 mm 10 mps 732 mmHg 63%
    19:00 +3°C° 0 mm 11 mps 732 mmHg 64%
    20:00 +3°C° 0 mm 11 mps 733 mmHg 65%
    21:00 +3°C° 0 mm 11 mps 733 mmHg 67%
    22:00 +3°C° 0 mm 10 mps 734 mmHg 68%
    23:00 +3°C° 0 mm 10 mps 735 mmHg 70%

    Day after tomorrow, 25 October, Thursday

    Time Temperature Precipitation Wind Pressure Humidity
    00:00 +3°C° 0 mm 9 mps 735 mmHg 70%
    01:00 +3°C° 0 mm 9 mps 736 mmHg 70%
    02:00 +2°C° 0 mm 9 mps 736 mmHg 71%
    03:00 +2°C° 0 mm 8 mps 737 mmHg 72%
    04:00 +2°C° 0 mm 8 mps 737 mmHg 73%
    05:00 +1°C° 0 mm 8 mps 737 mmHg 74%
    06:00 +2°C° 0 mm 7 mps 738 mmHg 74%
    07:00 +2°C° 0 mm 7 mps 738 mmHg 75%
    08:00 +1°C° 0 mm 6 mps 738 mmHg 75%
    09:00 +2°C° 0 mm 6 mps 738 mmHg 72%
    10:00 +3°C° 0 mm 6 mps 737 mmHg 69%
    11:00 +4°C° 0 mm 6 mps 737 mmHg 66%
    12:00 +4°C° 0.4 mm 7 mps 736 mmHg 70%
    13:00 +4°C° 0.4 mm 7 mps 735 mmHg 74%
    14:00 +3°C° 0.4 mm 7 mps 734 mmHg 78%
    15:00 +5°C° 0.8 mm 8 mps 734 mmHg 80%
    16:00 +6°C° 0.8 mm 8 mps 733 mmHg 82%
    17:00 +7°C° 0.8 mm 9 mps 732 mmHg 84%
    18:00 +7°C° 0.5 mm 9 mps 732 mmHg 81%
    19:00 +6°C° 0.5 mm 8 mps 733 mmHg 79%
    20:00 +6°C° 0.5 mm 8 mps 733 mmHg 77%
    21:00 +6°C° 0.1 mm 8 mps 733 mmHg 78%
    22:00 +5°C° 0.1 mm 8 mps 734 mmHg 79%
    23:00 +5°C° 0.1 mm 8 mps 735 mmHg 80%

    26 October, Friday

    Time Temperature Precipitation Wind Pressure Humidity
    00:00 +5°C° 0 mm 8 mps 735 mmHg 81%
    01:00 +5°C° 0 mm 7 mps 736 mmHg 82%
    02:00 +5°C° 0 mm 7 mps 737 mmHg 83%
    03:00 +5°C° 0 mm 7 mps 737 mmHg 83%
    04:00 +5°C° 0 mm 7 mps 737 mmHg 83%
    05:00 +5°C° 0 mm 6 mps 737 mmHg 84%
    06:00 +4°C° 0 mm 6 mps 738 mmHg 84%
    07:00 +4°C° 0 mm 6 mps 738 mmHg 84%
    08:00 +4°C° 0 mm 6 mps 738 mmHg 84%
    09:00 +5°C° 0 mm 6 mps 738 mmHg 82%
    10:00 +5°C° 0 mm 6 mps 739 mmHg 80%
    11:00 +6°C° 0 mm 5 mps 739 mmHg 78%
    12:00 +7°C° 0 mm 5 mps 739 mmHg 74%
    13:00 +8°C° 0 mm 5 mps 739 mmHg 70%
    14:00 +8°C° 0 mm 5 mps 739 mmHg 66%
    15:00 +8°C° 0 mm 5 mps 739 mmHg 68%
    16:00 +7°C° 0 mm 4 mps 738 mmHg 70%
    17:00 +8°C° 0 mm 3 mps 738 mmHg 72%
    18:00 +8°C° 0 mm 3 mps 738 mmHg 76%
    19:00 +6°C° 0 mm 4 mps 738 mmHg 80%
    20:00 +6°C° 0 mm 4 mps 738 mmHg 84%
    21:00 +6°C° 0 mm 4 mps 737 mmHg 84%
    22:00 +6°C° 0 mm 4 mps 737 mmHg 85%
    23:00 +7°C° 0 mm 5 mps 736 mmHg 85%

    27 October, Saturday

    Time Temperature Precipitation Wind Pressure Humidity
    00:00 +7°C° 0 mm 5 mps 736 mmHg 83%
    01:00 +8°C° 0 mm 6 mps 736 mmHg 81%
    02:00 +8°C° 0 mm 6 mps 735 mmHg 80%
    03:00 +8°C° 0 mm 6 mps 735 mmHg 80%
    04:00 +8°C° 0 mm 6 mps 735 mmHg 80%
    05:00 +8°C° 0 mm 6 mps 735 mmHg 81%
    06:00 +8°C° 0 mm 6 mps 736 mmHg 79%
    07:00 +8°C° 0 mm 7 mps 736 mmHg 78%
    08:00 +6°C° 0 mm 7 mps 736 mmHg 76%
    09:00 +8°C° 0 mm 7 mps 737 mmHg 70%
    10:00 +7°C° 0 mm 8 mps 737 mmHg 64%
    11:00 +7°C° 0 mm 8 mps 738 mmHg 58%
    12:00 +8°C° 0 mm 7 mps 738 mmHg 58%
    13:00 +8°C° 0 mm 7 mps 739 mmHg 57%
    14:00 +8°C° 0 mm 6 mps 739 mmHg 56%
    15:00 +8°C° 0 mm 5 mps 739 mmHg 58%
    16:00 +7°C° 0 mm 4 mps 740 mmHg 59%
    17:00 +8°C° 0 mm 3 mps 740 mmHg 61%
    18:00 +7°C° 0 mm 3 mps 741 mmHg 63%
    19:00 +7°C° 0 mm 3 mps 741 mmHg 64%
    20:00 +7°C° 0 mm 2 mps 742 mmHg 66%
    21:00 +6°C° 0 mm 2 mps 742 mmHg 67%
    22:00 +7°C° 0 mm 1 mps 742 mmHg 69%
    23:00 +7°C° 0 mm 1 mps 742 mmHg 70%

    28 October, Sunday

    Time Temperature Precipitation Wind Pressure Humidity
    00:00 +7°C° 0.1 mm 1 mps 743 mmHg 71%
    01:00 +7°C° 0.1 mm 1 mps 743 mmHg 72%
    02:00 +7°C° 0.1 mm 1 mps 743 mmHg 73%
    03:00 +7°C° 0.2 mm 1 mps 743 mmHg 75%
    04:00 +6°C° 0.2 mm 1 mps 743 mmHg 76%
    05:00 +6°C° 0.2 mm 1 mps 743 mmHg 78%
    06:00 +5°C° 0.5 mm 2 mps 744 mmHg 80%
    07:00 +5°C° 0.5 mm 2 mps 744 mmHg 81%
    08:00 +5°C° 0.5 mm 2 mps 744 mmHg 82%
    09:00 +4°C° 0.6 mm 3 mps 744 mmHg 82%
    10:00 +4°C° 0.6 mm 3 mps 744 mmHg 81%
    11:00 +5°C° 0.6 mm 4 mps 744 mmHg 80%
    12:00 +5°C° 0.5 mm 4 mps 744 mmHg 81%
    13:00 +5°C° 0.5 mm 5 mps 744 mmHg 81%
    14:00 +5°C° 0.5 mm 5 mps 743 mmHg 82%
    15:00 +5°C° 0.5 mm 5 mps 743 mmHg 84%
    16:00 +5°C° 0.5 mm 5 mps 743 mmHg 86%
    17:00 +5°C° 0.5 mm 5 mps 743 mmHg 88%
    18:00 +5°C° 1.3 mm 5 mps 743 mmHg 89%
    19:00 +4°C° 1.3 mm 6 mps 743 mmHg 90%
    20:00 +4°C° 1.3 mm 6 mps 742 mmHg 92%
    21:00 +5°C° 2.4 mm 5 mps 742 mmHg 92%
    22:00 +5°C° 2.4 mm 5 mps 742 mmHg 93%
    23:00 +5°C° 2.4 mm 5 mps 742 mmHg 94%

    29 October, Monday

    Time Temperature Precipitation Wind Pressure Humidity
    00:00 +5°C° 0.7 mm 5 mps 741 mmHg 94%
    01:00 +5°C° 0.7 mm 4 mps 741 mmHg 95%
    02:00 +6°C° 0.7 mm 4 mps 740 mmHg 95%
    03:00 +7°C° 0.3 mm 3 mps 740 mmHg 95%
    04:00 +7°C° 0.3 mm 3 mps 740 mmHg 95%
    05:00 +7°C° 0.3 mm 3 mps 739 mmHg 95%
    06:00 +7°C° 0.1 mm 3 mps 739 mmHg 94%
    07:00 +8°C° 0.1 mm 2 mps 739 mmHg 94%
    08:00 +8°C° 0.1 mm 2 mps 739 mmHg 93%
    09:00 +9°C° 0.2 mm 2 mps 739 mmHg 91%
    10:00 +10°C° 0.2 mm 2 mps 739 mmHg 88%
    11:00 +12°C° 0.2 mm 2 mps 739 mmHg 86%
    12:00 +12°C° 0.9 mm 2 mps 739 mmHg 87%
    13:00 +12°C° 0.9 mm 2 mps 739 mmHg 89%
    14:00 +12°C° 0.9 mm 2 mps 738 mmHg 91%
    15:00 +12°C° 1.3 mm 2 mps 738 mmHg 92%
    16:00 +12°C° 1.3 mm 2 mps 738 mmHg 92%
    17:00 +11°C° 1.3 mm 3 mps 738 mmHg 93%
    18:00 +11°C° 0.4 mm 3 mps 739 mmHg 93%
    19:00 +10°C° 0.4 mm 3 mps 739 mmHg 93%
    20:00 +10°C° 0.4 mm 3 mps 739 mmHg 93%
    21:00 +9°C° 0.1 mm 3 mps 740 mmHg 93%
    22:00 +9°C° 0.1 mm 3 mps 740 mmHg 94%
    23:00 +8°C° 0.1 mm 3 mps 740 mmHg 94%
    Show more